Вернуться в каталог

RADUGA 1-7

АктивенВоенныеGEO
NORAD 28194·PAYLOAD·🇷🇺 Russia

Запущен Mar 27, 2004 с Baikonur Cosmodrome

Loading…

TLE

СвежийSource: Space-Track

Эпоха: Sep 13, 2026, 23:56 UTC

1 28194U 04010A   26256.99739848  .00000077  00000-0  00000-0 0  9991
2 28194  13.7804  20.0215 0005459 232.0859 117.5515  1.00255946 82301

Отслеживайте RADUGA 1-7 в реальном времени с AllMySat

Download on the App Store